Simultaneous Nadir Overpasses (SNOs) Predictions

Prediction of SNOs between LANDSAT-8 and NPP Satellite Orbit:

Table of predicted SNOs for the next 14.0 days since TLE Epoch: 1/17/2016
Index Date (LANDSAT-8) Time (LANDSAT-8) Lat,Lon (LANDSAT-8) SZA (LANDSAT-8 ) Date (NPP) Time (NPP) Lat,Lon (NPP) SZA (NPP ) Distance(km) Time Diff (sec)
1 01/17/2016 13:52:31 70.24, -31.48 91.01 01/17/2016 13:52:08 70.27, -31.46 91.04 3.30 23
2 01/17/2016 14:42:01 -70.13, 135.99 89.11 01/17/2016 14:42:49 -70.15, 136.05 89.10 3.21 48
3 01/20/2016 05:19:31 -70.41, -83.01 89.37 01/20/2016 05:18:17 -70.47, -83.31 89.29 13.14 74
4 01/20/2016 06:08:59 70.25, 84.40 90.47 01/20/2016 06:08:59 70.24, 84.37 90.47 1.80 0
5 01/20/2016 06:58:29 -70.14,-108.12 89.64 01/20/2016 06:59:40 -70.12,-108.12 89.68 2.82 71
6 01/22/2016 21:36:02 -70.30, 32.71 90.06 01/22/2016 21:35:06 -70.29, 32.76 90.07 2.62 56
7 01/22/2016 22:25:29 70.19,-159.80 89.83 01/22/2016 22:25:51 70.21,-159.82 89.85 2.22 22
8 01/22/2016 23:15:12 -69.37, 6.70 90.96 01/22/2016 23:16:19 -69.40, 8.71 91.01 79.01 67
9 01/25/2016 13:52:31 -70.29, 148.57 90.70 01/25/2016 13:51:58 -70.26, 148.58 90.72 3.37 33
10 01/25/2016 14:41:58 70.18, -43.94 89.19 01/25/2016 14:42:43 70.19, -44.00 89.20 2.49 45
11 01/28/2016 05:19:26 70.59, 97.26 88.93 01/28/2016 05:18:14 70.64, 96.44 89.01 30.67 72
12 01/28/2016 06:09:01 -70.22, -95.65 91.44 01/28/2016 06:08:50 -70.24, -95.61 91.42 2.97 11
13 01/28/2016 06:58:28 70.10, 71.83
